This is the latest recevied weather packets stored in our database for station/object N8XHB. If no packets are shown the sender has not sent any weather packets the latest 10 day(s).
| Time | Temp. | Humidity | Pressure | Rain* | Wind** | Luminosity | Snow |
|---|---|---|---|---|---|---|---|
| 1777634787 | 3.33° C | 65% | 1014.5 hPa | 0 mm | - | 34 W/m² | - |
| 1777634485 | 3.33° C | 64% | 1014.5 hPa | 0 mm | - | 27 W/m² | - |
| 1777634181 | 3.33° C | 64% | 1014.4 hPa | 0 mm | - | 20 W/m² | - |
| 1777633877 | 3.33° C | 63% | 1014.3 hPa | 0 mm | - | 17 W/m² | - |
| 1777633576 | 3.33° C | 64% | 1014.4 hPa | 0 mm | - | 13 W/m² | - |
| 1777633273 | 3.33° C | 63% | 1014.3 hPa | 0 mm | - | 9 W/m² | - |
| 1777632970 | 3.33° C | 64% | 1014.1 hPa | 0 mm | - | 7 W/m² | - |
| 1777632667 | 3.33° C | 64% | 1014.2 hPa | 0 mm | - | 5 W/m² | - |
| 1777632363 | 3.33° C | 64% | 1014.1 hPa | 0 mm | - | 4 W/m² | - |
| 1777632061 | 3.33° C | 64% | 1014.3 hPa | 0 mm | - | 2 W/m² | - |
| 1777631758 | 3.33° C | 64% | 1014.2 hPa | 0 mm | - | 1 W/m² | - |
| 1777631455 | 3.33° C | 65% | 1014.3 hPa | 0 mm | - | 1 W/m² | - |
| 1777631152 | 3.33° C | 66% | 1014.2 hPa | 0 mm | - | 0 W/m² | - |
| 1777630850 | 3.33° C | 66% | 1014.2 hPa | 0 mm | - | 0 W/m² | - |
| 1777630545 | 3.33° C | 66% | 1014.2 hPa | 0 mm | - | 0 W/m² | - |
| 1777630242 | 3.33° C | 65% | 1014.3 hPa | 0 mm | - | 0 W/m² | - |
| 1777629940 | 3.33° C | 64% | 1014.2 hPa | 0 mm | - | 0 W/m² | - |
| 1777629638 | 3.33° C | 64% | 1014 hPa | 0 mm | - | 0 W/m² | - |
| 1777629334 | 3.33° C | 63% | 1014 hPa | 0 mm | - | 0 W/m² | - |
| 1777629030 | 3.33° C | 63% | 1014 hPa | 0 mm | - | 0 W/m² | - |
| 1777628727 | 3.33° C | 63% | 1013.9 hPa | 0 mm | - | 0 W/m² | - |
| 1777628423 | 3.89° C | 63% | 1014 hPa | 0 mm | - | 0 W/m² | - |
| 1777628120 | 3.89° C | 63% | 1014 hPa | 0 mm | - | 0 W/m² | - |
| 1777627815 | 3.89° C | 63% | 1014.1 hPa | 0 mm | - | 0 W/m² | - |
| 1777627514 | 3.89° C | 63% | 1014 hPa | 0 mm | - | 0 W/m² | - |
* Rain latest hour (hover to see other rain measurements)
** Current wind speed in m/s (hover to see current wind gust speed)